HAWK-7B

Last updated on Fri Dec 29 2023 00:03:29 GMT+0000 (Coordinated Universal Time)

1 56193U 23054R 23361.69385689 .00007081 00000+0 36961-3 0 9990 2 56193 97.3653 252.1486 0011196 42.8478 317.3626 15.16171409 39564
UTC large
Height (km)
Speed (km/s)
/
Latitude / Longitude
Inclination (degrees)
Orbital Period (minutes)
Azimuth
Elevation
Range (km)
Doppler Factor

Next 0 passes for location: London (51.5072 / 0.1276)

Sorry there are no passes over London.